Theta_e
299 298 298 297 298 298 298 298 297 296 296 296 297 299 301 302 303 304 305 305 306 305 305 305 304 304 303 304 307 312 312 309 311 316 318 321 322 322 324 325 330 334 334 334 333
298 298 297 297 298 298 298 297 297 296 296 296 296 299 301 303 301 304 305 306 306 306 305 305 306 305 305 304 305 307 306 306 308 310 316 319 321 322 324 326 329 331 331 333 332
298 297 297 297 297 297 297 297 297 296 296 296 296 298 300 303 301 304 305 306 306 309 305 304 305 305 306 305 304 306 307 304 304 306 311 315 318 321 323 326 327 330 332 333 334
298 297 297 297 297 297 297 297 297 296 296 296 296 298 301 304 306 304 305 304 306 306 305 305 305 305 306 306 304 304 302 303 305 304 304 310 316 319 322 324 323 324 330 333 333
297 297 297 297 297 297 297 297 297 296 296 296 296 298 302 304 304 305 307 307 307 306 305 305 305 305 305 304 304 303 304 303 302 303 304 306 311 318 319 323 326 325 326 330 332
297 297 297 297 297 297 297 297 296 296 296 296 297 299 303 305 304 306 307 307 307 305 306 305 305 304 304 304 305 303 304 304 303 304 305 307 309 315 320 320 329 328 328 329 331
297 297 297 296 297 297 297 297 296 296 296 298 299 301 303 304 305 307 306 307 306 305 306 306 306 304 305 305 304 304 305 303 303 303 306 309 311 316 319 319 325 327 328 330 331
297 297 297 296 297 297 297 297 296 296 299 301 302 302 303 304 305 306 307 307 306 306 306 305 305 304 304 304 305 305 306 307 303 304 305 310 312 315 318 319 322 322 325 327 329
297 296 297 297 296 297 297 296 296 297 301 302 302 302 304 304 306 306 307 307 306 306 304 304 305 305 305 306 306 308 309 308 308 306 310 309 311 321 320 319 321 322 321 321 323
296 296 297 296 296 297 296 296 296 298 300 301 301 304 304 303 306 305 306 307 306 305 306 306 306 307 306 307 308 308 308 310 311 310 308 312 310 320 320 321 320 321 321 320 319
296 296 296 296 296 296 296 296 296 296 300 300 300 302 303 304 306 305 306 307 307 307 309 306 309 310 310 307 306 307 308 310 310 312 310 310 320 320 321 320 319 319 320 319 319
296 296 296 296 296 296 296 296 296 296 298 298 299 302 302 302 305 305 306 308 308 310 309 309 311 308 307 307 307 309 312 312 314 314 313 314 318 319 319 319 319 318 318 319 317
296 296 296 296 296 296 295 296 297 297 300 297 298 301 301 302 305 305 305 306 308 309 309 311 310 306 308 310 313 313 317 318 317 318 316 315 314 319 316 314 312 314 315 317 319
295 295 295 295 296 295 295 296 298 297 305 297 299 301 302 302 305 303 304 306 307 307 308 310 308 308 310 310 308 316 312 315 317 317 316 312 316 311 310 308 306 305 310 312 316
295 295 295 295 295 295 295 297 299 296 311 296 299 301 302 303 302 304 304 305 306 306 307 308 308 309 312 309 307 315 314 315 315 316 313 310 312 306 307 307 305 305 304 308 314
295 295 295 295 295 295 295 297 295 313 307 298 297 300 303 301 302 302 303 304 303 304 305 306 304 307 308 307 306 307 313 312 311 315 315 308 310 306 305 304 304 305 305 306 311
296 296 295 295 295 295 296 298 311 312 294 297 300 299 301 302 303 301 304 305 306 309 309 307 307 306 306 311 311 309 311 319 320 318 313 308 306 306 305 305 305 305 305 305 306
297 296 295 295 295 295 297 302 304 292 293 294 298 299 302 300 302 301 303 306 304 305 307 309 311 307 306 307 309 309 308 313 317 317 310 306 306 306 304 303 303 304 304 305 306
297 296 296 295 295 296 296 304 304 295 293 298 297 301 301 300 300 301 301 303 302 303 306 308 309 305 305 305 306 310 310 305 307 302 309 307 307 308 307 305 303 304 304 304 305
298 296 296 295 295 296 300 301 294 290 297 297 300 297 302 300 302 302 301 300 300 300 300 305 309 304 305 306 307 307 305 310 310 313 310 305 307 309 308 306 304 304 304 304 303
298 296 296 296 295 296 302 296 290 291 296 297 297 297 299 300 297 301 301 299 298 299 301 304 306 309 307 308 308 309 310 306 306 306 308 307 307 303 307 306 306 304 302 302 302
298 297 296 297 295 285 295 289 292 294 295 296 297 297 300 298 300 300 302 300 297 297 304 303 304 308 307 307 306 307 309 307 310 307 305 305 305 306 305 304 304 302 301 300 301
297 295 297 296 299 295 289 290 293 296 296 297 297 298 297 299 299 299 298 296 297 299 301 302 305 309 307 305 304 307 308 307 306 306 306 309 306 304 304 302 301 301 299 298 298
296 298 295 296 292 293 291 293 295 294 296 296 297 297 297 297 293 298 297 297 296 297 298 301 301 302 307 306 303 307 308 308 308 312 307 305 303 306 303 302 300 298 297 297 297
295 296 296 297 295 292 292 292 294 295 295 296 296 297 297 297 296 295 294 296 296 295 296 298 302 298 299 297 298 303 305 307 309 308 308 307 304 306 304 301 298 298 298 298 297
295 293 291 290 291 293 293 291 296 295 296 296 295 297 295 297 298 296 295 296 299 295 296 294 299 294 298 295 294 299 301 303 306 309 308 307 308 303 300 297 298 297 297 297 296
296 294 293 292 291 295 295 294 295 295 294 295 296 297 295 295 294 294 294 294 295 295 293 293 293 294 299 288 291 298 296 301 303 305 306 307 307 301 298 297 296 296 296 296 296
Wind_Speed
5 7 8 10 9 9 9 10 11 14 15 17 18 18 17 20 9 15 12 15 16 15 16 16 12 12 8 5 6 5 7 15 26 26 21 7 14 19 16 25 11 8 2 5 15
5 7 8 10 9 10 10 11 12 14 15 17 18 17 17 19 3 14 19 18 19 16 15 16 16 14 6 5 6 11 8 16 17 16 19 9 16 18 13 17 15 9 7 10 22
5 6 8 9 9 10 10 11 12 14 15 17 18 16 15 16 2 10 19 16 17 15 18 16 13 11 9 7 10 7 15 16 15 14 13 12 18 15 18 17 20 19 17 17 26
6 6 7 8 9 10 10 11 12 15 16 17 18 14 13 10 3 15 17 14 15 13 15 13 7 4 8 8 6 10 21 19 18 13 10 16 12 11 15 17 11 9 16 22 27
6 7 8 8 10 10 11 11 13 14 17 17 15 12 11 4 5 16 17 14 15 17 12 10 10 6 5 5 9 13 16 18 17 17 18 18 21 11 16 8 7 11 15 22 28
7 7 8 9 9 10 11 11 13 15 16 13 12 11 10 1 15 16 19 16 14 16 9 7 6 3 5 9 9 6 11 14 14 16 15 17 21 7 12 6 8 12 14 17 23
7 8 9 10 9 10 10 11 13 15 12 11 9 8 8 1 13 15 17 12 12 15 8 8 8 3 1 7 11 15 16 14 17 16 11 13 17 14 13 6 11 18 16 16 18
9 9 9 10 10 10 10 11 13 10 10 8 6 10 1 10 13 15 18 9 12 13 10 7 0 7 3 7 9 11 10 10 10 18 8 7 14 19 21 13 16 16 14 12 17
9 8 8 9 10 10 10 11 11 5 7 4 4 6 2 9 13 16 16 13 12 12 8 3 1 3 3 5 6 7 8 9 7 15 10 7 5 21 24 19 17 17 13 11 9
9 7 8 8 9 9 9 10 5 2 7 2 5 2 7 13 11 13 15 11 8 6 3 2 1 3 1 3 7 13 7 5 4 12 9 7 19 15 24 21 18 19 15 14 8
9 7 7 8 8 8 6 4 2 1 2 4 2 3 10 16 5 13 15 6 8 3 7 4 2 7 8 5 10 9 11 6 5 6 7 7 14 14 15 19 20 20 17 14 11
8 6 6 7 7 6 6 2 2 2 1 1 3 3 11 14 5 15 15 7 5 5 12 3 7 4 6 5 11 10 10 8 12 19 12 13 15 17 20 18 17 17 16 13 12
7 6 5 5 5 3 4 5 3 1 0 1 3 4 8 11 4 12 14 7 4 7 8 6 9 2 3 4 6 8 13 13 11 10 13 4 18 17 16 24 22 22 17 14 10
8 5 4 4 3 3 2 5 3 3 2 3 2 3 8 6 2 12 11 8 2 6 6 3 15 8 11 10 9 10 13 6 11 7 8 10 6 19 19 17 17 17 15 14 10
7 5 3 2 1 2 4 3 2 2 2 3 3 6 5 4 8 10 10 6 5 8 4 5 10 13 15 9 7 4 7 6 6 10 10 17 7 13 14 18 18 17 14 12 8
7 5 4 3 2 2 3 1 1 1 3 1 4 7 3 7 6 9 4 8 3 6 3 3 1 4 9 6 2 5 3 2 1 1 8 14 4 15 12 13 12 14 18 17 11
7 5 4 4 2 1 1 1 1 2 2 1 3 4 2 6 6 9 7 12 7 7 7 6 6 4 7 6 2 11 3 1 3 6 7 8 13 10 13 12 11 13 19 19 17
7 6 5 4 3 1 1 2 2 2 3 1 1 1 3 7 3 7 1 5 11 6 3 6 1 11 10 4 5 6 5 3 4 3 4 11 6 4 6 11 14 16 19 22 25
9 6 6 6 4 3 2 1 2 4 3 5 3 3 2 1 3 3 6 2 4 8 5 5 2 4 3 4 5 6 7 3 6 2 4 4 6 8 8 12 15 19 21 20 22
10 6 6 7 5 5 2 3 3 3 3 2 3 1 2 2 1 2 2 2 2 4 3 4 5 4 5 4 2 4 4 1 3 3 4 4 3 7 8 10 10 15 16 16 17
11 5 6 10 8 3 2 3 3 6 2 2 4 4 2 2 1 1 1 1 2 2 4 3 3 3 2 7 6 6 4 4 3 2 2 5 5 3 3 5 7 11 13 15 17
10 3 10 15 3 1 2 4 4 6 3 2 3 3 4 4 3 2 2 1 2 1 4 3 3 2 2 2 2 0 4 4 1 2 3 2 4 5 4 6 7 9 10 13 16
10 5 12 18 4 3 1 1 3 5 5 5 4 3 2 3 2 3 3 1 2 1 2 3 2 2 1 0 1 2 2 2 2 1 1 1 6 3 5 6 8 9 10 12 15
10 4 4 11 4 5 6 4 4 4 5 4 4 5 4 2 1 5 5 3 1 2 4 3 3 2 3 3 3 2 0 1 2 1 4 2 9 6 5 5 6 8 9 12 16
11 5 10 6 7 5 4 6 6 6 5 7 2 5 6 4 2 4 2 3 1 2 4 1 2 1 1 3 2 4 5 2 3 0 3 7 10 9 6 6 5 5 8 12 16
12 8 8 5 8 12 8 10 11 6 10 6 4 12 8 5 4 7 7 4 2 3 3 1 3 2 3 5 5 4 7 6 3 4 4 4 5 6 6 5 6 7 9 11 13
29 16 9 11 8 7 6 8 12 14 8 4 12 8 8 4 6 10 6 7 5 4 3 3 5 3 3 3 5 6 8 10 4 5 7 7 4 13 8 8 7 7 9 10 12
Wind_Direction
343 348 341 338 343 344 341 339 338 340 345 345 346 352 354 355 9 26 10 354 356 356 333 330 327 335 328 258 223 215 248 248 244 239 243 254 252 222 243 238 213 192 222 195 179
335 339 337 332 340 338 337 333 332 336 339 341 342 349 351 352 31 13 358 355 351 341 347 348 336 332 298 269 245 214 230 246 262 268 246 258 252 261 211 220 216 185 190 180 168
326 330 334 332 337 334 330 327 329 330 334 335 336 345 351 353 108 350 352 348 350 312 319 319 322 313 274 249 226 231 246 254 279 279 290 297 285 276 264 215 218 200 179 177 172
317 326 327 333 333 331 325 323 326 327 328 329 330 341 355 10 7 349 342 336 334 328 321 306 315 280 272 248 239 256 256 271 272 282 297 261 294 281 290 260 191 166 183 181 177
311 318 321 330 328 330 324 322 323 324 323 326 325 339 356 20 347 341 345 347 342 340 337 286 276 268 259 268 244 245 268 277 273 273 273 269 253 271 298 294 208 182 180 190 184
305 317 319 323 325 328 325 324 322 323 322 326 326 339 348 74 345 346 348 349 2 4 338 288 263 261 247 255 244 240 244 262 267 258 261 250 249 300 218 270 155 142 171 185 184
303 310 317 318 322 328 325 320 322 322 324 327 330 342 336 38 346 357 352 354 6 2 2 343 252 258 212 263 257 263 264 259 245 239 251 242 258 228 213 153 120 127 154 169 181
295 307 312 315 323 327 325 321 323 322 329 327 340 341 298 347 357 355 2 4 357 358 356 353 107 235 241 290 273 266 256 261 230 213 208 160 244 227 172 131 106 109 116 150 161
293 303 310 318 326 327 328 322 320 326 342 353 354 346 8 341 0 3 6 12 5 5 44 20 92 260 238 272 272 218 277 241 252 178 137 165 267 166 167 114 109 102 101 98 109
287 301 314 317 328 332 335 327 324 310 347 357 6 357 350 335 356 5 6 10 15 3 318 350 277 281 233 279 320 314 317 38 151 159 139 187 249 100 129 111 93 90 96 83 84
286 303 310 317 328 338 348 336 356 308 47 68 18 13 330 343 42 8 13 46 13 339 357 8 291 357 333 309 292 281 287 270 301 168 145 236 91 63 124 103 81 79 64 59 52
286 297 302 314 326 344 359 33 352 245 283 277 359 360 345 343 317 352 21 63 346 351 353 8 19 329 295 296 291 307 93 142 123 104 105 60 58 92 67 68 77 65 56 48 39
277 286 293 310 321 345 4 16 9 164 2 341 350 358 337 334 325 332 15 60 344 354 355 31 345 271 281 44 340 346 37 74 82 96 84 66 41 69 57 57 53 41 37 40 15
267 272 282 301 303 340 19 13 45 105 95 355 30 25 348 316 272 5 18 56 346 339 329 347 339 330 37 22 6 8 349 0 28 24 56 349 78 43 58 63 55 41 19 22 27
247 253 254 260 268 5 343 13 53 57 338 21 344 336 4 42 329 0 31 62 11 331 295 357 352 354 36 1 346 19 320 356 47 59 66 13 70 16 35 36 32 32 41 38 52
235 235 232 225 245 315 347 43 349 317 237 85 334 354 360 12 8 331 38 50 40 309 329 353 312 43 327 296 332 299 245 260 41 267 48 14 81 29 13 356 14 32 48 57 55
220 219 229 210 193 287 66 13 351 200 359 356 19 5 32 3 360 7 42 60 41 349 0 329 22 23 22 310 81 35 352 302 38 43 53 28 58 38 16 24 23 31 48 57 68
204 206 206 207 179 128 122 63 231 32 233 162 24 356 58 2 24 1 48 71 47 7 343 345 24 3 358 17 318 2 22 46 92 76 80 40 53 46 25 37 45 50 53 59 64
199 200 204 203 177 158 145 109 227 187 153 166 121 87 347 30 346 4 39 80 80 21 3 330 343 336 348 338 335 353 38 341 104 64 78 76 103 95 64 54 47 47 56 55 58
193 196 212 198 183 163 93 234 173 190 158 200 144 146 206 327 48 10 24 332 99 90 47 333 298 8 334 313 19 9 326 109 19 106 104 113 107 107 34 36 39 46 49 46 48
189 182 201 182 170 173 220 202 184 198 188 188 146 132 200 185 99 104 27 40 335 92 104 9 292 353 350 28 0 342 357 49 108 24 106 144 115 30 42 40 57 52 48 48 52
185 174 179 169 127 19 200 167 157 158 184 151 113 122 173 184 128 148 203 22 333 190 100 70 308 338 79 1 302 260 342 319 330 130 73 68 117 38 80 79 77 70 56 54 56
183 142 172 175 180 193 152 158 213 155 195 164 145 166 163 181 141 155 196 216 356 98 51 69 86 289 156 108 201 38 26 354 340 332 82 144 146 97 113 76 57 66 63 61 58
173 142 152 197 215 150 146 195 184 206 203 163 124 129 130 158 1 161 179 174 148 66 86 161 105 283 329 38 350 289 342 111 12 304 141 69 144 166 121 102 75 62 58 57 55
195 199 174 179 213 180 170 158 140 176 225 188 140 207 166 143 154 180 219 194 189 66 82 48 131 350 7 5 302 283 281 278 186 118 261 149 160 168 159 134 114 88 81 66 55
182 172 166 164 147 154 187 206 171 171 163 209 205 188 190 162 194 182 153 215 242 111 97 48 127 126 260 324 343 274 244 248 216 162 142 148 162 150 154 145 126 89 75 63 51
207 190 181 160 147 162 209 181 195 155 205 198 177 155 189 201 127 110 113 105 150 139 122 111 137 148 250 333 312 275 229 203 202 175 151 195 177 158 158 156 125 92 69 53 39